When you browse on this site, cookies collect data to enhance your experience and personalize the content and advertising you see.
Visit our Privacy Policy to learn more. By continuing to use the site, you agree to this use of cookies and data.
  • In Denmark
  • List of Countries
  • For 7 days
  • Water Temperature
  • Satellite Maps
  • Weather Map
  • Weather Widgets
  • user-avatar
    Login

    Hourly Weather Irbid

    Today, 16 February, Saturday

    Time Temperature Precipitation Wind Pressure Humidity
    00:00 +8°C° 0 mm 3 mps 710 mmHg 61%
    01:00 +8°C° 0 mm 3 mps 710 mmHg 65%
    02:00 +8°C° 0 mm 3 mps 711 mmHg 69%
    03:00 +7°C° 0.1 mm 4 mps 711 mmHg 73%
    04:00 +7°C° 0.1 mm 4 mps 711 mmHg 76%
    05:00 +7°C° 0.1 mm 4 mps 711 mmHg 80%
    06:00 +7°C° 0.2 mm 4 mps 712 mmHg 81%
    07:00 +7°C° 0.2 mm 4 mps 712 mmHg 83%
    08:00 +7°C° 0.2 mm 4 mps 713 mmHg 85%
    09:00 +8°C° 0.2 mm 5 mps 713 mmHg 78%
    10:00 +9°C° 0.2 mm 6 mps 714 mmHg 72%
    11:00 +10°C° 0.2 mm 7 mps 714 mmHg 65%
    12:00 +10°C° 0.4 mm 7 mps 714 mmHg 63%
    13:00 +11°C° 0.4 mm 7 mps 714 mmHg 61%
    14:00 +11°C° 0.4 mm 8 mps 714 mmHg 59%
    15:00 +10°C° 0.3 mm 7 mps 714 mmHg 62%
    16:00 +9°C° 0.3 mm 6 mps 714 mmHg 66%
    17:00 +9°C° 0.3 mm 5 mps 714 mmHg 70%
    18:00 +8°C° 0 mm 4 mps 715 mmHg 74%
    19:00 +8°C° 0 mm 3 mps 715 mmHg 78%
    20:00 +7°C° 0 mm 2 mps 715 mmHg 81%
    21:00 +8°C° 0 mm 1 mps 715 mmHg 82%
    22:00 +7°C° 0 mm 1 mps 715 mmHg 84%
    23:00 +7°C° 0 mm 1 mps 715 mmHg 85%

    Tomorrow, 17 February, Sunday

    Time Temperature Precipitation Wind Pressure Humidity
    00:00 +6°C° 0 mm 0 mps 715 mmHg 85%
    01:00 +5°C° 0 mm 0 mps 715 mmHg 85%
    02:00 +5°C° 0 mm 0 mps 715 mmHg 85%
    03:00 +5°C° 0 mm 0 mps 715 mmHg 85%
    04:00 +6°C° 0 mm 1 mps 715 mmHg 84%
    05:00 +5°C° 0 mm 1 mps 714 mmHg 83%
    06:00 +7°C° 0 mm 1 mps 715 mmHg 76%
    07:00 +8°C° 0 mm 1 mps 715 mmHg 70%
    08:00 +9°C° 0 mm 1 mps 716 mmHg 64%
    09:00 +10°C° 0 mm 1 mps 716 mmHg 58%
    10:00 +10°C° 0 mm 2 mps 716 mmHg 52%
    11:00 +13°C° 0 mm 2 mps 716 mmHg 46%
    12:00 +12°C° 0 mm 3 mps 716 mmHg 44%
    13:00 +13°C° 0 mm 3 mps 715 mmHg 42%
    14:00 +13°C° 0 mm 4 mps 715 mmHg 40%
    15:00 +13°C° 0 mm 4 mps 715 mmHg 44%
    16:00 +12°C° 0 mm 4 mps 714 mmHg 49%
    17:00 +11°C° 0 mm 4 mps 714 mmHg 53%
    18:00 +10°C° 0 mm 3 mps 714 mmHg 60%
    19:00 +9°C° 0 mm 2 mps 714 mmHg 67%
    20:00 +8°C° 0 mm 1 mps 714 mmHg 74%
    21:00 +8°C° 0 mm 1 mps 714 mmHg 76%
    22:00 +7°C° 0 mm 0 mps 714 mmHg 78%
    23:00 +6°C° 0 mm 0 mps 714 mmHg 80%

    Day after tomorrow, 18 February, Monday

    Time Temperature Precipitation Wind Pressure Humidity
    00:00 +6°C° 0 mm 0 mps 714 mmHg 81%
    01:00 +6°C° 0 mm 0 mps 713 mmHg 81%
    02:00 +6°C° 0 mm 1 mps 713 mmHg 81%
    03:00 +5°C° 0 mm 0 mps 713 mmHg 80%
    04:00 +5°C° 0 mm 0 mps 713 mmHg 78%
    05:00 +4°C° 0 mm 0 mps 712 mmHg 77%
    06:00 +5°C° 0 mm 0 mps 713 mmHg 70%
    07:00 +7°C° 0 mm 0 mps 713 mmHg 62%
    08:00 +8°C° 0 mm 0 mps 714 mmHg 55%
    09:00 +10°C° 0 mm 1 mps 714 mmHg 50%
    10:00 +10°C° 0 mm 2 mps 714 mmHg 46%
    11:00 +12°C° 0 mm 2 mps 714 mmHg 41%
    12:00 +12°C° 0 mm 3 mps 713 mmHg 41%
    13:00 +12°C° 0 mm 4 mps 713 mmHg 40%
    14:00 +13°C° 0 mm 4 mps 713 mmHg 40%
    15:00 +12°C° 0 mm 5 mps 713 mmHg 47%
    16:00 +10°C° 0 mm 5 mps 713 mmHg 55%
    17:00 +9°C° 0 mm 5 mps 712 mmHg 63%
    18:00 +8°C° 0 mm 4 mps 713 mmHg 68%
    19:00 +8°C° 0 mm 3 mps 713 mmHg 74%
    20:00 +8°C° 0 mm 1 mps 713 mmHg 79%
    21:00 +8°C° 0 mm 1 mps 713 mmHg 80%
    22:00 +7°C° 0 mm 1 mps 713 mmHg 81%
    23:00 +7°C° 0 mm 1 mps 713 mmHg 81%

    19 February, Tuesday

    Time Temperature Precipitation Wind Pressure Humidity
    00:00 +7°C° 0 mm 1 mps 713 mmHg 82%
    01:00 +6°C° 0 mm 1 mps 713 mmHg 83%
    02:00 +6°C° 0 mm 1 mps 713 mmHg 84%
    03:00 +6°C° 0 mm 1 mps 713 mmHg 85%
    04:00 +6°C° 0 mm 1 mps 713 mmHg 85%
    05:00 +6°C° 0 mm 1 mps 714 mmHg 85%
    06:00 +6°C° 0 mm 1 mps 714 mmHg 81%
    07:00 +7°C° 0 mm 1 mps 715 mmHg 77%
    08:00 +7°C° 0 mm 2 mps 715 mmHg 73%
    09:00 +9°C° 0 mm 3 mps 715 mmHg 69%
    10:00 +10°C° 0 mm 3 mps 716 mmHg 65%
    11:00 +12°C° 0 mm 4 mps 716 mmHg 61%
    12:00 +12°C° 0 mm 5 mps 716 mmHg 59%
    13:00 +13°C° 0 mm 5 mps 715 mmHg 58%
    14:00 +13°C° 0 mm 6 mps 715 mmHg 56%
    15:00 +11°C° 0 mm 6 mps 715 mmHg 61%
    16:00 +12°C° 0 mm 5 mps 715 mmHg 65%
    17:00 +10°C° 0 mm 5 mps 715 mmHg 70%
    18:00 +10°C° 0 mm 4 mps 715 mmHg 76%
    19:00 +9°C° 0 mm 3 mps 716 mmHg 83%
    20:00 +8°C° 0 mm 2 mps 716 mmHg 89%
    21:00 +8°C° 0 mm 2 mps 716 mmHg 89%
    22:00 +8°C° 0 mm 2 mps 716 mmHg 89%
    23:00 +8°C° 0 mm 2 mps 716 mmHg 89%

    20 February, Wednesday

    Time Temperature Precipitation Wind Pressure Humidity
    00:00 +8°C° 0 mm 2 mps 716 mmHg 89%
    01:00 +8°C° 0 mm 2 mps 716 mmHg 89%
    02:00 +8°C° 0 mm 2 mps 716 mmHg 88%
    03:00 +8°C° 0 mm 2 mps 716 mmHg 89%
    04:00 +7°C° 0 mm 2 mps 716 mmHg 89%
    05:00 +7°C° 0 mm 2 mps 716 mmHg 90%
    06:00 +9°C° 0 mm 1 mps 716 mmHg 86%
    07:00 +9°C° 0 mm 1 mps 717 mmHg 83%
    08:00 +10°C° 0 mm 1 mps 717 mmHg 79%
    09:00 +10°C° 0 mm 2 mps 717 mmHg 73%
    10:00 +12°C° 0 mm 2 mps 718 mmHg 67%
    11:00 +13°C° 0 mm 2 mps 718 mmHg 61%
    12:00 +13°C° 0 mm 3 mps 717 mmHg 59%
    13:00 +13°C° 0 mm 3 mps 717 mmHg 58%
    14:00 +14°C° 0 mm 4 mps 717 mmHg 56%
    15:00 +13°C° 0.1 mm 4 mps 717 mmHg 61%
    16:00 +13°C° 0.1 mm 4 mps 717 mmHg 66%
    17:00 +12°C° 0.1 mm 4 mps 717 mmHg 72%
    18:00 +11°C° 0.1 mm 3 mps 717 mmHg 77%
    19:00 +10°C° 0.1 mm 2 mps 717 mmHg 83%
    20:00 +10°C° 0.1 mm 1 mps 717 mmHg 88%
    21:00 +10°C° 0 mm 1 mps 717 mmHg 90%
    22:00 +9°C° 0 mm 1 mps 717 mmHg 92%
    23:00 +8°C° 0 mm 0 mps 716 mmHg 93%

    21 February, Thursday

    Time Temperature Precipitation Wind Pressure Humidity
    00:00 +7°C° 0 mm 0 mps 716 mmHg 94%
    01:00 +7°C° 0 mm 0 mps 716 mmHg 94%
    02:00 +7°C° 0 mm 0 mps 716 mmHg 95%
    03:00 +7°C° 0 mm 0 mps 716 mmHg 95%
    04:00 +6°C° 0 mm 0 mps 716 mmHg 95%
    05:00 +6°C° 0 mm 0 mps 716 mmHg 95%
    06:00 +7°C° 0 mm 0 mps 716 mmHg 92%
    07:00 +8°C° 0 mm 0 mps 717 mmHg 88%
    08:00 +10°C° 0 mm 1 mps 717 mmHg 85%
    09:00 +11°C° 0 mm 1 mps 717 mmHg 78%
    10:00 +12°C° 0 mm 2 mps 717 mmHg 72%
    11:00 +12°C° 0 mm 3 mps 717 mmHg 65%
    12:00 +13°C° 0.1 mm 3 mps 716 mmHg 64%
    13:00 +13°C° 0.1 mm 4 mps 716 mmHg 63%
    14:00 +14°C° 0.1 mm 5 mps 716 mmHg 62%
    15:00 +13°C° 0.1 mm 4 mps 715 mmHg 66%
    16:00 +12°C° 0.1 mm 4 mps 715 mmHg 70%
    17:00 +12°C° 0.1 mm 4 mps 715 mmHg 74%
    18:00 +11°C° 0 mm 3 mps 715 mmHg 79%
    19:00 +10°C° 0 mm 2 mps 715 mmHg 84%
    20:00 +9°C° 0 mm 2 mps 715 mmHg 88%
    21:00 +9°C° 0 mm 1 mps 715 mmHg 90%
    22:00 +9°C° 0 mm 1 mps 715 mmHg 91%
    23:00 +7°C° 0 mm 0 mps 715 mmHg 92%
    Show more